| time (UTC) | temp F | wind direction | speed knots | gust knots | rain 1hr in | rain 24hr in | rain mn in | humidity % | barometer mb |
| 20260509090513 | 70 | 239 | 1.7 | 11.3 | 0.00 | 0.05 | 0.00 | 86 | 1008.6 |
| 20260509090046 | 70 | 188 | 3.5 | 12.2 | 0.00 | 0.05 | 0.00 | 86 | 1008.1 |
| 20260509085513 | 70 | 0 | 4.3 | 16.5 | 0.00 | 0.09 | 0.00 | 86 | 1007.2 |
| 20260509085013 | 70 | 202 | 6.1 | 18.2 | 0.00 | 0.09 | 0.00 | 85 | 1006.9 |
| 20260509084530 | 70 | 133 | 6.1 | 18.2 | 0.00 | 0.09 | 0.00 | 85 | 1006.9 |
| 20260509084012 | 70 | 143 | 8.7 | 18.2 | 0.00 | 0.09 | 0.00 | 85 | 1006.8 |
| 20260509083512 | 70 | 181 | 7.0 | 15.6 | 0.00 | 0.09 | 0.00 | 85 | 1006.9 |
| 20260509083030 | 70 | 172 | 6.1 | 14.8 | 0.00 | 0.09 | 0.00 | 85 | 1007.3 |
| 20260509082510 | 70 | 164 | 7.8 | 14.8 | 0.00 | 0.09 | 0.00 | 85 | 1007.6 |
| 20260509082013 | 70 | 145 | 6.1 | 11.3 | 0.00 | 0.09 | 0.00 | 85 | 1007.8 |
| 20260509081546 | 71 | 210 | 5.2 | 11.3 | 0.00 | 0.09 | 0.00 | 85 | 1008.2 |
| 20260509081009 | 71 | 215 | 4.3 | 10.4 | 0.00 | 0.09 | 0.00 | 85 | 1008.4 |
| 20260509080510 | 71 | 205 | 5.2 | 10.4 | 0.00 | 0.09 | 0.00 | 85 | 1008.5 |
| 20260509080030 | 71 | 181 | 5.2 | 9.6 | 0.00 | 0.09 | 0.00 | 84 | 1008.9 |
| 20260509075512 | 71 | 211 | 4.3 | 9.6 | 0.00 | 0.11 | 0.00 | 84 | 1009.2 |
| 20260509075012 | 71 | 233 | 5.2 | 9.6 | 0.00 | 0.11 | 0.00 | 84 | 1009.5 |
| 20260509074528 | 71 | 195 | 5.2 | 9.6 | 0.00 | 0.11 | 0.00 | 84 | 1009.1 |
| 20260509074011 | 70 | 191 | 4.3 | 9.6 | 0.00 | 0.11 | 0.00 | 84 | 1009.5 |
| 20260509073509 | 70 | 198 | 4.3 | 9.6 | 0.00 | 0.11 | 0.00 | 84 | 1009.6 |
| 20260509073042 | 71 | 201 | 3.5 | 8.7 | 0.00 | 0.11 | 0.00 | 84 | 1009.9 |
| 20260509072510 | 71 | 207 | 2.6 | 8.7 | 0.00 | 0.11 | 0.00 | 84 | 1010.1 |
| 20260509072012 | 71 | 240 | 4.3 | 8.7 | 0.00 | 0.11 | 0.00 | 84 | 1010.2 |
| 20260509071536 | 71 | 247 | 3.5 | 7.8 | 0.00 | 0.11 | 0.00 | 84 | 1010.3 |
| 20260509071011 | 71 | 207 | 3.5 | 7.8 | 0.00 | 0.11 | 0.00 | 84 | 1010.5 |
| 20260509070513 | 70 | 220 | 3.5 | 7.8 | 0.00 | 0.11 | 0.00 | 84 | 1010.6 |
| 20260509070040 | 70 | 252 | 2.6 | 7.0 | 0.00 | 0.11 | 0.00 | 84 | 1010.7 |
| 20260509065517 | 70 | 257 | 1.7 | 7.0 | 0.00 | 0.11 | 0.00 | 84 | 1010.9 |
| 20260509065013 | 70 | 0 | 0.0 | 3.5 | 0.00 | 0.11 | 0.00 | 84 | 1010.9 |
| 20260509064531 | 70 | 0 | 0.0 | 4.3 | 0.00 | 0.11 | 0.00 | 83 | 1010.8 |
| 20260509064017 | 70 | 284 | 0.9 | 7.8 | 0.00 | 0.11 | 0.00 | 83 | 1010.7 |
| 20260509063509 | 70 | 305 | 2.6 | 7.8 | 0.00 | 0.11 | 0.00 | 83 | 1010.6 |
| 20260509063054 | 70 | 244 | 2.6 | 7.0 | 0.00 | 0.11 | 0.00 | 83 | 1010.4 |
| 20260509062513 | 70 | 241 | 3.5 | 7.0 | 0.00 | 0.11 | 0.00 | 83 | 1010.3 |
| 20260509062011 | 70 | 242 | 3.5 | 7.0 | 0.00 | 0.11 | 0.00 | 83 | 1010.1 |
| 20260509061545 | 70 | 230 | 2.6 | 7.0 | 0.00 | 0.11 | 0.00 | 83 | 1010.3 |
| 20260509061010 | 70 | 231 | 2.6 | 7.0 | 0.00 | 0.11 | 0.00 | 83 | 1010.3 |
| 20260509060511 | 70 | 219 | 2.6 | 6.1 | 0.00 | 0.11 | 0.00 | 83 | 1010.3 |
| 20260509060047 | 70 | 197 | 2.6 | 6.1 | 0.00 | 0.11 | 0.00 | 83 | 1010.3 |
| 20260509055511 | 70 | 206 | 2.6 | 5.2 | 0.00 | 0.11 | 0.00 | 82 | 1010.1 |
| 20260509055013 | 70 | 204 | 0.9 | 2.6 | 0.00 | 0.11 | 0.00 | 82 | 1010.6 |
| 20260509054530 | 70 | 0 | 0.0 | 2.6 | 0.00 | 0.11 | 0.00 | 82 | 1011.1 |
| 20260509054012 | 71 | 224 | 0.9 | 2.6 | 0.00 | 0.11 | 0.00 | 81 | 1011.0 |
| 20260509053510 | 71 | 0 | 0.0 | 2.6 | 0.00 | 0.11 | 0.00 | 81 | 1011.3 |
| 20260509053032 | 71 | 227 | 0.9 | 2.6 | 0.00 | 0.11 | 0.00 | 80 | 1011.2 |
| 20260509052511 | 71 | 211 | 0.0 | 1.7 | 0.00 | 0.11 | 0.00 | 80 | 1011.3 |
| 20260509052011 | 71 | 0 | 0.0 | 8.7 | 0.00 | 0.11 | 0.00 | 80 | 1011.3 |
| 20260509051530 | 71 | 333 | 1.7 | 8.7 | 0.00 | 0.11 | 0.00 | 80 | 1011.8 |
| 20260509051014 | 71 | 345 | 4.3 | 8.7 | 0.00 | 0.11 | 0.00 | 80 | 1011.9 |
| 20260509050510 | 71 | 342 | 5.2 | 8.7 | 0.00 | 0.11 | 0.00 | 80 | 1011.8 |
| 20260509050032 | 71 | 0 | 0.0 | 3.5 | 0.00 | 0.11 | 0.00 | 80 | 1011.0 |
| 20260509045511 | 72 | 244 | 0.9 | 7.8 | 0.00 | 0.11 | 0.11 | 80 | 1010.6 |
| 20260509045013 | 72 | 215 | 2.6 | 7.8 | 0.00 | 0.11 | 0.11 | 80 | 1010.2 |
| 20260509044530 | 72 | 227 | 2.6 | 7.8 | 0.00 | 0.11 | 0.11 | 80 | 1010.1 |
| 20260509044012 | 72 | 212 | 2.6 | 5.2 | 0.00 | 0.11 | 0.11 | 79 | 1010.0 |
| 20260509043509 | 71 | 188 | 1.7 | 6.1 | 0.00 | 0.11 | 0.11 | 79 | 1010.1 |
| 20260509043033 | 71 | 190 | 1.7 | 6.1 | 0.00 | 0.11 | 0.11 | 79 | 1010.2 |
| 20260509042514 | 71 | 0 | 0.0 | 7.0 | 0.00 | 0.11 | 0.11 | 79 | 1010.6 |
| 20260509042014 | 72 | 168 | 2.6 | 7.8 | 0.00 | 0.11 | 0.11 | 79 | 1010.2 |
| 20260509041528 | 72 | 136 | 1.7 | 9.6 | 0.00 | 0.11 | 0.11 | 79 | 1010.2 |
| 20260509041012 | 72 | 174 | 4.3 | 9.6 | 0.00 | 0.11 | 0.11 | 79 | 1010.2 |
| 20260509040511 | 72 | 170 | 4.3 | 9.6 | 0.00 | 0.11 | 0.11 | 79 | 1010.0 |
| 20260509040028 | 72 | 155 | 0.0 | 6.1 | 0.00 | 0.11 | 0.11 | 79 | 1010.3 |
| 20260509035514 | 72 | 0 | 1.7 | 8.7 | 0.00 | 0.11 | 0.11 | 78 | 1010.1 |
| 20260509035012 | 72 | 115 | 1.7 | 8.7 | 0.00 | 0.11 | 0.11 | 78 | 1009.9 |
| 20260509034530 | 72 | 182 | 4.3 | 8.7 | 0.00 | 0.11 | 0.11 | 78 | 1010.0 |
| 20260509034012 | 72 | 149 | 0.0 | 1.7 | 0.00 | 0.11 | 0.11 | 78 | 1010.7 |
| 20260509033514 | 72 | 0 | 0.0 | 0.0 | 0.00 | 0.11 | 0.11 | 78 | 1011.0 |
| 20260509033028 | 72 | 0 | 0.0 | 0.0 | 0.00 | 0.11 | 0.11 | 79 | 1011.0 |
| 20260509032516 | 72 | 0 | 0.0 | 2.6 | 0.00 | 0.11 | 0.11 | 79 | 1010.8 |
| 20260509032019 | 72 | 0 | 0.0 | 2.6 | 0.00 | 0.11 | 0.11 | 78 | 1010.6 |
| 20260509031534 | 72 | 101 | 0.0 | 2.6 | 0.00 | 0.11 | 0.11 | 78 | 1010.6 |
| 20260509031012 | 72 | 0 | 0.0 | 2.6 | 0.00 | 0.11 | 0.11 | 78 | 1010.4 |
| 20260509030511 | 72 | 0 | 0.0 | 2.6 | 0.00 | 0.11 | 0.11 | 78 | 1010.3 |
| 20260509030029 | 72 | 0 | 0.0 | 1.7 | 0.00 | 0.11 | 0.11 | 79 | 1010.3 |
| 20260509025510 | 72 | 0 | 0.0 | 1.7 | 0.00 | 0.11 | 0.11 | 78 | 1010.2 |
| 20260509025019 | 72 | 0 | 0.0 | 3.5 | 0.00 | 0.11 | 0.11 | 78 | 1010.0 |
| 20260509024530 | 72 | 0 | 0.0 | 8.7 | 0.00 | 0.11 | 0.11 | 77 | 1009.8 |
| 20260509024013 | 72 | 172 | 0.9 | 9.6 | 0.00 | 0.11 | 0.11 | 77 | 1009.6 |
| 20260509023511 | 72 | 171 | 3.5 | 9.6 | 0.00 | 0.11 | 0.11 | 77 | 1009.3 |
| 20260509023028 | 72 | 0 | 1.7 | 7.8 | 0.00 | 0.11 | 0.11 | 77 | 1009.2 |
| 20260509022511 | 72 | 178 | 3.5 | 11.3 | 0.00 | 0.11 | 0.11 | 77 | 1009.1 |
| 20260509022011 | 72 | 204 | 5.2 | 11.3 | 0.00 | 0.11 | 0.11 | 76 | 1009.0 |
| 20260509021528 | 72 | 170 | 5.2 | 10.4 | 0.00 | 0.11 | 0.11 | 76 | 1008.9 |
| 20260509021013 | 73 | 205 | 3.5 | 10.4 | 0.00 | 0.11 | 0.11 | 76 | 1008.9 |
| 20260509020512 | 73 | 150 | 3.5 | 11.3 | 0.00 | 0.11 | 0.11 | 76 | 1008.8 |
| 20260509020046 | 73 | 138 | 3.5 | 11.3 | 0.00 | 0.11 | 0.11 | 75 | 1009.0 |
| 20260509015513 | 73 | 188 | 5.2 | 11.3 | 0.00 | 0.11 | 0.11 | 75 | 1008.9 |
| 20260509015010 | 73 | 217 | 4.3 | 10.4 | 0.00 | 0.11 | 0.11 | 75 | 1008.9 |
| 20260509014542 | 73 | 196 | 5.2 | 10.4 | 0.00 | 0.11 | 0.11 | 75 | 1008.9 |
| 20260509014009 | 73 | 222 | 3.5 | 7.8 | 0.00 | 0.11 | 0.11 | 74 | 1008.9 |
| 20260509013511 | 73 | 199 | 3.5 | 7.0 | 0.00 | 0.11 | 0.11 | 74 | 1009.0 |
| 20260509013036 | 73 | 224 | 1.7 | 6.1 | 0.00 | 0.11 | 0.11 | 74 | 1009.0 |
| 20260509012512 | 73 | 174 | 1.7 | 6.1 | 0.00 | 0.11 | 0.11 | 74 | 1009.1 |
| 20260509012010 | 73 | 168 | 3.5 | 6.1 | 0.00 | 0.11 | 0.11 | 74 | 1009.1 |
| 20260509011530 | 73 | 186 | 1.7 | 6.1 | 0.00 | 0.11 | 0.11 | 74 | 1009.0 |
| 20260509011010 | 73 | 156 | 1.7 | 6.1 | 0.00 | 0.11 | 0.11 | 74 | 1009.0 |
| 20260509010516 | 73 | 214 | 2.6 | 7.0 | 0.00 | 0.11 | 0.11 | 73 | 1008.9 |
| 20260509010027 | 73 | 148 | 1.7 | 9.6 | 0.00 | 0.11 | 0.11 | 73 | 1008.8 |
| 20260509005513 | 74 | 161 | 2.6 | 9.6 | 0.00 | 0.11 | 0.11 | 72 | 1008.8 |
| 20260509005016 | 74 | 209 | 3.5 | 9.6 | 0.00 | 0.11 | 0.11 | 72 | 1008.6 |
| 20260509004528 | 74 | 156 | 2.6 | 9.6 | 0.00 | 0.11 | 0.11 | 72 | 1008.6 |
| 20260509004013 | 74 | 225 | 3.5 | 9.6 | 0.00 | 0.11 | 0.11 | 72 | 1008.5 |
| 20260509003515 | 74 | 225 | 4.3 | 10.4 | 0.00 | 0.11 | 0.11 | 71 | 1008.3 |
| 20260509003039 | 75 | 194 | 5.2 | 10.4 | 0.00 | 0.11 | 0.11 | 71 | 1008.2 |
| 20260509002509 | 75 | 207 | 5.2 | 12.2 | 0.00 | 0.11 | 0.11 | 71 | 1008.4 |
| 20260509002010 | 75 | 126 | 5.2 | 13.9 | 0.00 | 0.11 | 0.11 | 70 | 1008.2 |
| 20260509001528 | 75 | 177 | 6.1 | 13.9 | 0.00 | 0.11 | 0.11 | 70 | 1008.1 |
| 20260509001011 | 75 | 133 | 7.0 | 13.9 | 0.00 | 0.11 | 0.11 | 70 | 1008.1 |
| 20260509000511 | 75 | 166 | 5.2 | 13.9 | 0.00 | 0.11 | 0.11 | 70 | 1008.2 |
| 20260509000030 | 75 | 156 | 5.2 | 11.3 | 0.00 | 0.11 | 0.11 | 70 | 1008.3 |
| 20260508235512 | 75 | 193 | 4.3 | 9.6 | 0.00 | 0.11 | 0.11 | 69 | 1008.6 |
| 20260508235011 | 75 | 191 | 3.5 | 9.6 | 0.00 | 0.11 | 0.11 | 69 | 1008.7 |
| 20260508234528 | 75 | 230 | 2.6 | 9.6 | 0.00 | 0.11 | 0.11 | 69 | 1008.6 |
| 20260508234012 | 75 | 171 | 4.3 | 9.6 | 0.00 | 0.11 | 0.11 | 68 | 1008.7 |
| 20260508233515 | 76 | 179 | 5.2 | 9.6 | 0.00 | 0.11 | 0.11 | 68 | 1008.8 |
| 20260508233028 | 76 | 199 | 3.5 | 11.3 | 0.00 | 0.11 | 0.11 | 67 | 1008.6 |
| 20260508232513 | 76 | 228 | 3.5 | 11.3 | 0.00 | 0.11 | 0.11 | 67 | 1008.6 |
| 20260508232010 | 76 | 164 | 4.3 | 10.4 | 0.00 | 0.11 | 0.11 | 67 | 1008.8 |
| 20260508231530 | 76 | 147 | 4.3 | 11.3 | 0.00 | 0.11 | 0.11 | 67 | 1008.7 |
| 20260508231010 | 76 | 196 | 5.2 | 11.3 | 0.00 | 0.11 | 0.11 | 66 | 1008.8 |
| 20260508230510 | 76 | 182 | 4.3 | 7.8 | 0.00 | 0.11 | 0.11 | 66 | 1008.9 |
| 20260508230030 | 76 | 206 | 3.5 | 7.0 | 0.00 | 0.11 | 0.11 | 66 | 1009.1 |
| 20260508225512 | 76 | 159 | 4.3 | 7.8 | 0.00 | 0.11 | 0.11 | 67 | 1009.1 |
| 20260508225012 | 76 | 195 | 3.5 | 8.7 | 0.00 | 0.11 | 0.11 | 67 | 1009.0 |
| 20260508224533 | 76 | 210 | 4.3 | 8.7 | 0.00 | 0.11 | 0.11 | 67 | 1009.0 |
| 20260508224011 | 76 | 154 | 3.5 | 8.7 | 0.00 | 0.11 | 0.11 | 67 | 1009.2 |
| 20260508223512 | 76 | 242 | 3.5 | 7.8 | 0.00 | 0.11 | 0.11 | 66 | 1009.1 |
| 20260508223036 | 76 | 183 | 3.5 | 8.7 | 0.00 | 0.11 | 0.11 | 66 | 1009.2 |
| 20260508222514 | 76 | 177 | 3.5 | 11.3 | 0.00 | 0.11 | 0.11 | 66 | 1009.1 |
| 20260508222012 | 76 | 201 | 5.2 | 11.3 | 0.00 | 0.11 | 0.11 | 66 | 1009.2 |
| 20260508221528 | 77 | 160 | 5.2 | 11.3 | 0.00 | 0.11 | 0.11 | 65 | 1009.1 |
| 20260508221012 | 77 | 236 | 4.3 | 12.2 | 0.00 | 0.11 | 0.11 | 64 | 1009.0 |
| 20260508220511 | 77 | 143 | 6.1 | 12.2 | 0.00 | 0.11 | 0.11 | 63 | 1009.0 |
| 20260508220027 | 77 | 140 | 5.2 | 11.3 | 0.00 | 0.11 | 0.11 | 64 | 1009.0 |
| 20260508215512 | 77 | 165 | 5.2 | 10.4 | 0.00 | 0.11 | 0.11 | 64 | 1009.0 |
| 20260508215011 | 77 | 208 | 4.3 | 9.6 | 0.00 | 0.11 | 0.11 | 63 | 1009.0 |
| 20260508214528 | 77 | 182 | 4.3 | 13.0 | 0.00 | 0.11 | 0.11 | 63 | 1009.2 |
| 20260508214012 | 78 | 200 | 5.2 | 13.0 | 0.00 | 0.11 | 0.11 | 63 | 1009.0 |
| 20260508213511 | 77 | 182 | 4.3 | 11.3 | 0.00 | 0.11 | 0.11 | 63 | 1009.1 |
| 20260508213028 | 78 | 203 | 5.2 | 11.3 | 0.00 | 0.11 | 0.11 | 63 | 1009.3 |
| 20260508212512 | 78 | 195 | 5.2 | 9.6 | 0.00 | 0.11 | 0.11 | 62 | 1009.2 |
| 20260508212011 | 78 | 207 | 2.6 | 9.6 | 0.00 | 0.11 | 0.11 | 62 | 1009.1 |
| 20260508211528 | 77 | 157 | 0.9 | 12.2 | 0.00 | 0.11 | 0.11 | 65 | 1009.2 |
| 20260508211010 | 77 | 202 | 3.5 | 12.2 | 0.00 | 0.11 | 0.11 | 64 | 1009.2 |
| 20260508210510 | 76 | 191 | 2.6 | 10.4 | 0.00 | 0.11 | 0.11 | 65 | 1009.2 |
| 20260508210030 | 76 | 172 | 6.1 | 10.4 | 0.00 | 0.11 | 0.11 | 65 | 1009.5 |
| 20260508205512 | 75 | 207 | 5.2 | 10.4 | 0.00 | 0.11 | 0.11 | 65 | 1009.8 |
| 20260508205019 | 75 | 153 | 4.3 | 10.4 | 0.00 | 0.11 | 0.11 | 66 | 1010.0 |
| 20260508204530 | 74 | 232 | 4.3 | 10.4 | 0.00 | 0.11 | 0.11 | 68 | 1010.1 |
| 20260508204012 | 73 | 210 | 4.3 | 10.4 | 0.00 | 0.11 | 0.11 | 67 | 1010.4 |
| 20260508203513 | 73 | 190 | 4.3 | 9.6 | 0.00 | 0.11 | 0.11 | 67 | 1010.8 |
| 20260508203029 | 74 | 231 | 6.1 | 11.3 | 0.00 | 0.11 | 0.11 | 66 | 1011.0 |
| 20260508202512 | 74 | 230 | 5.2 | 11.3 | 0.00 | 0.11 | 0.11 | 66 | 1011.0 |
| 20260508202012 | 75 | 272 | 4.3 | 10.4 | 0.00 | 0.11 | 0.11 | 66 | 1011.1 |
| 20260508201533 | 75 | 238 | 4.3 | 10.4 | 0.00 | 0.11 | 0.11 | 65 | 1010.9 |
| 20260508201012 | 75 | 207 | 2.6 | 8.7 | 0.00 | 0.11 | 0.11 | 65 | 1010.9 |
| 20260508200511 | 75 | 204 | 2.6 | 7.0 | 0.00 | 0.11 | 0.11 | 65 | 1011.0 |
| 20260508200033 | 75 | 189 | 2.6 | 7.8 | 0.00 | 0.11 | 0.11 | 65 | 1011.1 |
| 20260508195513 | 75 | 226 | 3.5 | 7.8 | 0.00 | 0.11 | 0.11 | 65 | 1011.0 |
| 20260508195010 | 75 | 217 | 3.5 | 8.7 | 0.00 | 0.11 | 0.11 | 65 | 1010.9 |
| 20260508194531 | 75 | 238 | 3.5 | 8.7 | 0.00 | 0.11 | 0.11 | 65 | 1010.9 |
| 20260508194013 | 75 | 244 | 4.3 | 9.6 | 0.00 | 0.11 | 0.11 | 65 | 1011.0 |
| 20260508193510 | 75 | 168 | 5.2 | 9.6 | 0.00 | 0.11 | 0.11 | 64 | 1011.1 |
| 20260508193027 | 76 | 242 | 3.5 | 9.6 | 0.00 | 0.11 | 0.11 | 65 | 1011.1 |
| 20260508192509 | 76 | 163 | 4.3 | 9.6 | 0.00 | 0.11 | 0.11 | 65 | 1011.1 |
| 20260508192017 | 76 | 196 | 5.2 | 9.6 | 0.00 | 0.11 | 0.11 | 64 | 1011.2 |
| 20260508191535 | 77 | 240 | 3.5 | 8.7 | 0.00 | 0.11 | 0.11 | 63 | 1011.1 |
| 20260508191012 | 77 | 229 | 3.5 | 8.7 | 0.00 | 0.11 | 0.11 | 62 | 1011.1 |
| 20260508190512 | 78 | 235 | 4.3 | 9.6 | 0.00 | 0.11 | 0.11 | 61 | 1011.1 |
| 20260508190035 | 78 | 149 | 5.2 | 9.6 | 0.00 | 0.11 | 0.11 | 61 | 1011.2 |
| 20260508185513 | 79 | 220 | 2.6 | 8.7 | 0.00 | 0.11 | 0.11 | 61 | 1011.2 |
| 20260508185010 | 79 | 248 | 3.5 | 7.8 | 0.00 | 0.11 | 0.11 | 60 | 1011.1 |
| 20260508184530 | 79 | 211 | 2.6 | 10.4 | 0.00 | 0.11 | 0.11 | 61 | 1011.2 |
| 20260508184010 | 78 | 316 | 4.3 | 10.4 | 0.00 | 0.11 | 0.11 | 61 | 1011.3 |
| 20260508183512 | 78 | 216 | 0.9 | 10.4 | 0.00 | 0.11 | 0.11 | 61 | 1011.3 |
| 20260508183034 | 78 | 0 | 3.5 | 10.4 | 0.00 | 0.11 | 0.11 | 60 | 1011.5 |
| 20260508182510 | 78 | 145 | 2.6 | 7.8 | 0.00 | 0.11 | 0.11 | 61 | 1011.4 |
| 20260508182009 | 77 | 0 | 1.7 | 7.8 | 0.00 | 0.11 | 0.11 | 62 | 1011.6 |
| 20260508181535 | 76 | 184 | 2.6 | 8.7 | 0.00 | 0.11 | 0.11 | 62 | 1011.8 |
| 20260508181009 | 76 | 273 | 3.5 | 12.2 | 0.00 | 0.11 | 0.11 | 62 | 1012.0 |
| 20260508180511 | 76 | 244 | 5.2 | 12.2 | 0.00 | 0.11 | 0.11 | 63 | 1012.1 |
| 20260508180028 | 76 | 212 | 3.5 | 12.2 | 0.00 | 0.11 | 0.11 | 62 | 1012.0 |
| 20260508175510 | 77 | 212 | 2.6 | 8.7 | 0.00 | 0.11 | 0.11 | 59 | 1012.2 |
| 20260508175016 | 76 | 213 | 2.6 | 8.7 | 0.00 | 0.11 | 0.11 | 60 | 1012.2 |
| 20260508174533 | 77 | 209 | 0.9 | 9.6 | 0.00 | 0.11 | 0.11 | 62 | 1012.2 |
| 20260508174010 | 76 | 213 | 3.5 | 9.6 | 0.00 | 0.11 | 0.11 | 61 | 1012.2 |
| 20260508173510 | 76 | 216 | 4.3 | 8.7 | 0.00 | 0.11 | 0.11 | 61 | 1012.2 |
| 20260508173027 | 75 | 122 | 2.6 | 8.7 | 0.00 | 0.11 | 0.11 | 62 | 1012.3 |
| 20260508172510 | 74 | 209 | 4.3 | 8.7 | 0.00 | 0.11 | 0.11 | 62 | 1012.3 |
| 20260508172010 | 74 | 178 | 1.7 | 8.7 | 0.00 | 0.11 | 0.11 | 63 | 1012.3 |
| 20260508171530 | 74 | 147 | 4.3 | 7.8 | 0.00 | 0.11 | 0.11 | 64 | 1012.7 |
| 20260508171012 | 74 | 193 | 4.3 | 7.8 | 0.00 | 0.11 | 0.11 | 63 | 1012.9 |
| 20260508170509 | 73 | 184 | 2.6 | 7.0 | 0.00 | 0.11 | 0.11 | 64 | 1013.0 |
| 20260508170030 | 73 | 203 | 4.3 | 7.0 | 0.00 | 0.11 | 0.11 | 62 | 1013.1 |
| 20260508165511 | 73 | 151 | 1.7 | 7.8 | 0.00 | 0.11 | 0.11 | 64 | 1013.3 |
| 20260508165013 | 72 | 201 | 3.5 | 7.8 | 0.00 | 0.11 | 0.11 | 63 | 1013.4 |
| 20260508164528 | 72 | 210 | 4.3 | 8.7 | 0.00 | 0.11 | 0.11 | 63 | 1013.4 |
| 20260508164010 | 73 | 232 | 4.3 | 9.6 | 0.00 | 0.11 | 0.11 | 64 | 1013.8 |
| 20260508163511 | 72 | 182 | 4.3 | 9.6 | 0.00 | 0.11 | 0.11 | 63 | 1013.8 |
| 20260508163029 | 71 | 190 | 2.6 | 7.8 | 0.00 | 0.11 | 0.11 | 65 | 1013.9 |
| 20260508162511 | 71 | 196 | 3.5 | 8.7 | 0.00 | 0.11 | 0.11 | 64 | 1014.0 |
| 20260508162011 | 72 | 228 | 4.3 | 9.6 | 0.00 | 0.11 | 0.11 | 63 | 1014.0 |
| 20260508161529 | 71 | 226 | 2.6 | 9.6 | 0.00 | 0.11 | 0.11 | 65 | 1014.1 |
| 20260508161012 | 70 | 169 | 2.6 | 8.7 | 0.00 | 0.11 | 0.11 | 65 | 1014.1 |
| 20260508160512 | 70 | 182 | 2.6 | 8.7 | 0.00 | 0.11 | 0.11 | 67 | 1014.2 |
| 20260508160033 | 68 | 190 | 3.5 | 8.7 | 0.00 | 0.11 | 0.11 | 67 | 1014.2 |
| 20260508155510 | 68 | 178 | 3.5 | 8.7 | 0.00 | 0.11 | 0.11 | 67 | 1014.2 |
| 20260508155011 | 69 | 0 | 1.7 | 6.1 | 0.00 | 0.11 | 0.11 | 68 | 1014.3 |
| 20260508154528 | 68 | 228 | 2.6 | 10.4 | 0.00 | 0.11 | 0.11 | 67 | 1014.2 |
| 20260508154012 | 68 | 134 | 3.5 | 10.4 | 0.00 | 0.11 | 0.11 | 67 | 1014.4 |
| 20260508153513 | 68 | 190 | 4.3 | 8.7 | 0.00 | 0.11 | 0.11 | 67 | 1014.5 |
| 20260508153028 | 68 | 210 | 2.6 | 7.8 | 0.00 | 0.11 | 0.11 | 67 | 1014.4 |
| 20260508152514 | 68 | 210 | 3.5 | 7.0 | 0.00 | 0.11 | 0.11 | 67 | 1014.6 |
| 20260508152010 | 68 | 168 | 2.6 | 7.0 | 0.00 | 0.11 | 0.11 | 68 | 1014.6 |
| 20260508151531 | 68 | 167 | 2.6 | 7.8 | 0.00 | 0.11 | 0.11 | 68 | 1014.5 |
| 20260508151011 | 68 | 153 | 2.6 | 7.8 | 0.00 | 0.11 | 0.11 | 68 | 1014.5 |
| 20260508150511 | 68 | 179 | 3.5 | 7.8 | 0.00 | 0.11 | 0.11 | 69 | 1014.5 |
| 20260508150034 | 68 | 157 | 3.5 | 7.8 | 0.00 | 0.11 | 0.11 | 69 | 1014.5 |
| 20260508145511 | 67 | 187 | 1.7 | 5.2 | 0.00 | 0.11 | 0.11 | 70 | 1014.5 |
| 20260508145012 | 66 | 186 | 2.6 | 7.0 | 0.00 | 0.11 | 0.11 | 71 | 1014.5 |
| 20260508144527 | 66 | 221 | 1.7 | 7.0 | 0.00 | 0.11 | 0.11 | 73 | 1014.6 |
| 20260508144012 | 66 | 0 | 0.9 | 6.1 | 0.00 | 0.11 | 0.11 | 74 | 1014.7 |
| 20260508143514 | 66 | 0 | 0.0 | 6.1 | 0.00 | 0.11 | 0.11 | 75 | 1014.5 |
| 20260508143030 | 66 | 152 | 0.9 | 5.2 | 0.00 | 0.11 | 0.11 | 75 | 1014.6 |
| 20260508142510 | 66 | 136 | 1.7 | 8.7 | 0.00 | 0.11 | 0.11 | 73 | 1014.8 |
| 20260508142011 | 66 | 157 | 3.5 | 10.4 | 0.00 | 0.11 | 0.11 | 73 | 1014.7 |
| 20260508141554 | 66 | 236 | 4.3 | 10.4 | 0.00 | 0.11 | 0.11 | 73 | 1014.7 |
| 20260508141010 | 66 | 147 | 4.3 | 7.8 | 0.00 | 0.11 | 0.11 | 75 | 1014.6 |
| 20260508140511 | 65 | 232 | 2.6 | 7.8 | 0.00 | 0.11 | 0.11 | 78 | 1014.9 |
| 20260508140029 | 64 | 162 | 0.9 | 5.2 | 0.00 | 0.11 | 0.11 | 81 | 1014.8 |
| 20260508135509 | 64 | 141 | 1.7 | 6.1 | 0.00 | 0.11 | 0.11 | 82 | 1014.9 |
| 20260508135008 | 63 | 160 | 2.6 | 6.1 | 0.00 | 0.11 | 0.11 | 83 | 1014.9 |
| 20260508134537 | 63 | 146 | 0.9 | 4.3 | 0.00 | 0.11 | 0.11 | 84 | 1014.7 |
| 20260508134011 | 63 | 126 | 1.7 | 5.2 | 0.00 | 0.11 | 0.11 | 86 | 1014.5 |
| 20260508133512 | 62 | 0 | 1.7 | 5.2 | 0.00 | 0.11 | 0.11 | 87 | 1014.6 |
| 20260508133030 | 62 | 164 | 0.9 | 6.1 | 0.00 | 0.11 | 0.11 | 88 | 1014.8 |
| 20260508132513 | 61 | 0 | 0.9 | 6.1 | 0.01 | 0.11 | 0.11 | 88 | 1014.7 |
| 20260508132010 | 61 | 140 | 0.9 | 6.1 | 0.02 | 0.11 | 0.11 | 89 | 1014.7 |
| 20260508131527 | 61 | 0 | 0.0 | 1.7 | 0.03 | 0.11 | 0.11 | 89 | 1014.8 |
| 20260508131010 | 61 | 0 | 0.0 | 2.6 | 0.04 | 0.11 | 0.11 | 89 | 1014.8 |
| 20260508130513 | 60 | 0 | 0.0 | 2.6 | 0.04 | 0.11 | 0.11 | 88 | 1014.9 |
| 20260508130029 | 60 | 0 | 0.0 | 2.6 | 0.04 | 0.11 | 0.11 | 89 | 1014.9 |
| 20260508125512 | 60 | 0 | 0.0 | 1.7 | 0.04 | 0.11 | 0.11 | 89 | 1014.6 |
| 20260508125014 | 60 | 0 | 0.0 | 1.7 | 0.04 | 0.11 | 0.11 | 88 | 1014.8 |
| 20260508124533 | 60 | 0 | 0.0 | 2.6 | 0.04 | 0.11 | 0.11 | 88 | 1015.1 |
| 20260508124013 | 60 | 0 | 0.0 | 3.5 | 0.04 | 0.11 | 0.11 | 88 | 1015.1 |
| 20260508123515 | 60 | 0 | 0.9 | 3.5 | 0.04 | 0.11 | 0.11 | 87 | 1015.0 |
| 20260508123043 | 60 | 113 | 0.0 | 2.6 | 0.04 | 0.11 | 0.11 | 88 | 1014.7 |
| 20260508122512 | 60 | 0 | 0.0 | 2.6 | 0.03 | 0.10 | 0.10 | 86 | 1015.3 |
| 20260508122013 | 61 | 0 | 0.9 | 6.1 | 0.01 | 0.08 | 0.08 | 87 | 1015.5 |
| 20260508121534 | 61 | 0 | 0.0 | 7.0 | 0.01 | 0.08 | 0.08 | 87 | 1015.1 |
| 20260508121012 | 61 | 174 | 2.6 | 7.0 | 0.00 | 0.07 | 0.07 | 87 | 1014.9 |
| 20260508120514 | 61 | 180 | 2.6 | 6.1 | 0.00 | 0.07 | 0.07 | 88 | 1014.9 |
| 20260508120028 | 61 | 195 | 2.6 | 6.1 | 0.00 | 0.07 | 0.07 | 89 | 1014.9 |
| 20260508115513 | 61 | 174 | 1.7 | 5.2 | 0.00 | 0.07 | 0.07 | 89 | 1015.0 |
| 20260508115013 | 61 | 145 | 0.9 | 4.3 | 0.01 | 0.07 | 0.07 | 90 | 1014.9 |
| 20260508114532 | 61 | 153 | 0.0 | 4.3 | 0.01 | 0.07 | 0.07 | 89 | 1015.2 |
| 20260508114013 | 61 | 168 | 0.9 | 4.3 | 0.01 | 0.07 | 0.07 | 90 | 1015.1 |
| 20260508113511 | 61 | 188 | 0.9 | 3.5 | 0.01 | 0.07 | 0.07 | 90 | 1015.0 |
| 20260508113046 | 61 | 0 | 0.0 | 0.9 | 0.01 | 0.07 | 0.07 | 89 | 1014.9 |
| 20260508112514 | 61 | 0 | 0.0 | 1.7 | 0.01 | 0.07 | 0.07 | 89 | 1014.9 |
| 20260508112012 | 61 | 0 | 0.0 | 1.7 | 0.01 | 0.07 | 0.07 | 89 | 1015.0 |
| 20260508111533 | 61 | 0 | 0.0 | 0.9 | 0.01 | 0.07 | 0.07 | 89 | 1014.9 |
| 20260508111020 | 61 | 0 | 0.0 | 3.5 | 0.01 | 0.07 | 0.07 | 89 | 1014.7 |
| 20260508110514 | 61 | 0 | 0.0 | 3.5 | 0.01 | 0.07 | 0.07 | 89 | 1014.2 |
| 20260508110030 | 61 | 126 | 1.7 | 3.5 | 0.01 | 0.07 | 0.07 | 89 | 1014.6 |
| 20260508105515 | 61 | 81 | 0.0 | 2.6 | 0.01 | 0.07 | 0.07 | 89 | 1014.5 |
| 20260508105013 | 61 | 84 | 0.0 | 3.5 | 0.00 | 0.06 | 0.06 | 89 | 1015.2 |
| 20260508104528 | 61 | 319 | 1.7 | 3.5 | 0.00 | 0.06 | 0.06 | 89 | 1015.6 |
| 20260508104014 | 61 | 0 | 0.0 | 0.0 | 0.00 | 0.06 | 0.06 | 89 | 1015.5 |
| 20260508103514 | 61 | 0 | 0.0 | 0.0 | 0.00 | 0.06 | 0.06 | 89 | 1015.1 |
| 20260508103034 | 61 | 0 | 0.0 | 3.5 | 0.00 | 0.06 | 0.06 | 88 | 1014.8 |
| 20260508102511 | 61 | 0 | 0.0 | 3.5 | 0.00 | 0.06 | 0.06 | 89 | 1014.8 |
| 20260508102015 | 61 | 334 | 1.7 | 3.5 | 0.00 | 0.06 | 0.06 | 89 | 1014.7 |
| 20260508101533 | 61 | 0 | 0.0 | 2.6 | 0.00 | 0.06 | 0.06 | 88 | 1014.1 |
| 20260508101016 | 61 | 103 | 0.9 | 2.6 | 0.00 | 0.06 | 0.06 | 88 | 1013.8 |
| 20260508100516 | 61 | 0 | 0.0 | 3.5 | 0.00 | 0.06 | 0.06 | 88 | 1014.6 |
| 20260508100030 | 60 | 0 | 0.0 | 3.5 | 0.00 | 0.06 | 0.06 | 88 | 1014.4 |
| 20260508095512 | 60 | 140 | 0.0 | 2.6 | 0.00 | 0.06 | 0.06 | 88 | 1013.9 |
| 20260508095012 | 60 | 159 | 0.0 | 4.3 | 0.01 | 0.06 | 0.06 | 88 | 1014.0 |
| 20260508094528 | 60 | 164 | 0.9 | 4.3 | 0.01 | 0.06 | 0.06 | 88 | 1014.1 |
| 20260508094011 | 60 | 173 | 1.7 | 3.5 | 0.03 | 0.06 | 0.06 | 88 | 1014.1 |
| 20260508093511 | 60 | 0 | 0.0 | 1.7 | 0.03 | 0.06 | 0.06 | 88 | 1014.1 |
| 20260508093030 | 60 | 0 | 0.0 | 0.0 | 0.03 | 0.06 | 0.06 | 88 | 1014.0 |
| 20260508092510 | 60 | 0 | 0.0 | 0.0 | 0.03 | 0.06 | 0.06 | 88 | 1014.2 |
| 20260508092011 | 60 | 0 | 0.0 | 0.9 | 0.03 | 0.06 | 0.06 | 88 | 1014.1 |
| 20260508091536 | 60 | 0 | 0.0 | 0.9 | 0.04 | 0.06 | 0.06 | 87 | 1014.2 |
| 20260508091011 | 60 | 0 | 0.0 | 0.9 | 0.04 | 0.06 | 0.06 | 87 | 1014.1 |